Total_Precipitation_Accumulation
0.05 0.05 0.13 0.12 0.07 0.06 0.07 0.11 0.15 0.15 0.15 0.17 0.17 0.14 0.11 0.08 0.06 0.04 0.04 0.04 0.04 0.04 0.05 0.07 0.09 0.10 0.12 0.14 0.19 0.23 0.26 0.29 0.43 0.55 0.70 0.76 0.80 0.92 1.14 1.23 1.31 1.13 1.00
0.01 0.03 0.12 0.15 0.11 0.09 0.08 0.11 0.14 0.15 0.16 0.16 0.16 0.16 0.14 0.10 0.07 0.05 0.05 0.05 0.04 0.05 0.06 0.06 0.07 0.07 0.08 0.09 0.14 0.20 0.25 0.35 0.62 0.83 0.96 0.89 0.94 1.12 1.26 1.23 1.30 1.08 0.85
0.01 0.02 0.08 0.14 0.13 0.11 0.10 0.11 0.15 0.15 0.16 0.15 0.14 0.14 0.13 0.10 0.07 0.06 0.05 0.05 0.05 0.05 0.05 0.06 0.06 0.06 0.07 0.09 0.14 0.18 0.25 0.41 0.77 1.16 1.34 1.28 0.95 1.15 1.30 1.29 1.19 0.84 0.62
0.02 0.02 0.03 0.09 0.12 0.11 0.11 0.12 0.14 0.14 0.12 0.12 0.11 0.11 0.11 0.09 0.06 0.06 0.06 0.07 0.08 0.07 0.08 0.07 0.07 0.07 0.08 0.08 0.14 0.21 0.31 0.44 0.74 1.12 1.49 1.17 0.82 0.79 0.97 0.92 0.80 0.64 0.48
0.06 0.04 0.04 0.07 0.09 0.12 0.13 0.13 0.13 0.13 0.12 0.10 0.10 0.10 0.09 0.08 0.07 0.06 0.07 0.08 0.10 0.11 0.11 0.08 0.08 0.10 0.10 0.10 0.14 0.22 0.36 0.52 0.74 1.03 1.07 1.21 1.17 0.78 0.70 0.67 0.68 0.55 0.39
0.11 0.06 0.06 0.09 0.09 0.11 0.12 0.13 0.12 0.11 0.11 0.12 0.11 0.11 0.09 0.09 0.09 0.08 0.08 0.09 0.11 0.13 0.14 0.12 0.12 0.12 0.09 0.10 0.14 0.22 0.37 0.58 0.84 0.71 0.59 0.85 0.88 0.70 0.65 0.64 0.61 0.52 0.37
0.15 0.08 0.07 0.13 0.13 0.13 0.13 0.15 0.14 0.12 0.12 0.12 0.11 0.12 0.12 0.11 0.11 0.11 0.10 0.11 0.12 0.13 0.13 0.14 0.15 0.14 0.11 0.10 0.15 0.24 0.40 0.65 0.83 0.64 0.50 0.64 0.63 0.58 0.64 0.67 0.64 0.55 0.39
0.22 0.12 0.11 0.17 0.19 0.18 0.18 0.19 0.19 0.16 0.14 0.14 0.14 0.15 0.15 0.13 0.14 0.15 0.15 0.15 0.15 0.15 0.16 0.16 0.16 0.16 0.15 0.14 0.18 0.26 0.39 0.53 0.62 0.61 0.54 0.60 0.44 0.58 0.67 0.60 0.59 0.57 0.47
0.39 0.26 0.21 0.19 0.19 0.20 0.24 0.26 0.24 0.20 0.18 0.17 0.18 0.17 0.16 0.15 0.16 0.18 0.21 0.22 0.22 0.21 0.20 0.20 0.20 0.22 0.22 0.20 0.22 0.30 0.42 0.61 0.74 0.78 0.65 0.61 0.47 0.64 0.86 0.73 0.56 0.50 0.49
0.82 0.57 0.42 0.30 0.30 0.24 0.24 0.26 0.27 0.24 0.22 0.21 0.21 0.21 0.22 0.25 0.30 0.35 0.35 0.33 0.33 0.33 0.34 0.37 0.36 0.38 0.39 0.36 0.37 0.44 0.54 0.58 0.74 1.06 0.88 0.62 0.58 0.77 1.00 1.05 0.86 0.68 0.55
1.00 0.78 0.67 0.52 0.37 0.37 0.34 0.32 0.40 0.39 0.39 0.41 0.46 0.43 0.43 0.48 0.62 0.74 0.64 0.63 0.64 0.65 0.69 0.75 0.77 0.79 0.74 0.61 0.60 0.69 0.68 0.66 0.99 1.27 1.00 0.74 0.77 1.02 1.24 1.37 1.21 1.07 0.91
1.05 0.82 0.78 0.76 0.56 0.52 0.50 0.68 0.87 0.80 0.87 0.84 0.96 0.87 0.92 0.96 0.84 0.68 0.78 0.90 1.02 1.21 1.29 1.36 1.41 1.38 1.25 1.04 1.07 1.05 0.76 0.84 1.08 1.12 0.96 0.84 0.90 1.15 1.42 1.57 1.45 1.26 1.14
1.24 1.08 0.81 0.89 0.77 0.76 0.85 0.99 1.14 1.20 1.20 1.17 1.22 1.23 1.36 1.33 1.12 1.02 1.17 1.41 1.57 1.72 1.82 2.05 2.06 1.70 1.69 1.74 1.77 1.54 1.33 1.26 1.29 1.21 0.87 0.92 1.01 1.25 1.53 1.64 1.54 1.44 1.30
1.45 1.42 1.27 1.25 1.19 1.12 1.11 1.11 1.11 1.05 1.07 1.16 1.27 1.36 1.52 1.52 1.54 1.51 1.56 1.64 1.77 2.00 2.25 2.33 2.33 2.20 2.34 2.30 2.09 1.94 1.75 1.48 1.67 1.76 1.26 1.18 1.27 1.50 1.67 1.67 1.56 1.50 1.49
2.18 2.06 1.95 1.91 1.68 1.42 1.23 1.08 0.96 0.91 0.87 0.96 1.06 1.12 1.22 1.46 1.61 1.61 1.45 1.46 1.49 1.73 2.07 2.38 2.43 2.64 2.74 2.53 2.14 1.93 1.90 1.79 1.82 1.74 1.43 1.46 1.64 1.67 1.65 1.62 1.57 1.55 1.58
3.20 2.97 2.65 2.53 2.06 1.73 1.52 1.21 1.04 0.88 0.88 0.89 0.86 0.92 1.10 1.25 1.41 1.38 1.36 1.42 1.47 1.49 1.64 2.02 2.27 2.48 2.42 2.22 1.82 1.69 1.67 1.71 1.62 1.58 1.38 1.41 1.55 1.44 1.43 1.58 1.69 1.73 1.74
4.18 3.74 3.11 2.78 2.41 2.06 1.82 1.44 1.16 0.99 0.89 0.87 0.81 0.83 0.91 0.99 1.11 1.13 1.14 1.14 1.19 1.23 1.25 1.39 1.62 1.79 1.74 1.67 1.61 1.64 1.62 1.56 1.43 1.39 1.42 1.35 1.24 1.30 1.34 1.40 1.47 1.59 1.73
4.99 4.34 3.58 2.92 2.85 2.57 2.19 1.64 1.22 0.98 0.84 0.72 0.67 0.63 0.63 0.66 0.69 0.71 0.71 0.70 0.72 0.73 0.79 0.89 1.00 1.12 1.24 1.38 1.48 1.47 1.50 1.49 1.39 1.37 1.35 1.29 1.25 1.11 1.27 1.33 1.31 1.35 1.52
5.28 4.97 4.21 3.91 3.63 2.89 2.05 1.46 1.10 0.83 0.68 0.57 0.57 0.50 0.48 0.47 0.47 0.50 0.50 0.50 0.45 0.44 0.48 0.50 0.61 0.73 0.85 0.95 0.96 1.05 1.07 1.00 0.99 0.96 0.98 0.90 1.01 0.99 1.04 1.12 1.18 1.17 1.32
4.29 4.10 3.82 3.77 3.14 2.34 1.63 1.25 0.94 0.72 0.58 0.46 0.42 0.44 0.40 0.39 0.38 0.42 0.39 0.38 0.33 0.33 0.38 0.43 0.49 0.51 0.53 0.59 0.54 0.62 0.64 0.58 0.59 0.58 0.56 0.61 0.67 0.67 0.73 0.88 0.90 0.82 1.05
2.79 2.73 2.76 2.73 2.32 1.74 1.29 0.90 0.70 0.62 0.49 0.36 0.28 0.30 0.32 0.31 0.35 0.41 0.33 0.35 0.33 0.29 0.30 0.32 0.36 0.37 0.35 0.34 0.40 0.44 0.38 0.35 0.35 0.31 0.33 0.38 0.44 0.53 0.65 0.79 0.80 0.79 0.75
1.88 1.98 1.95 1.95 1.67 1.22 0.99 0.76 0.66 0.58 0.44 0.32 0.25 0.24 0.21 0.20 0.23 0.29 0.36 0.28 0.29 0.29 0.29 0.28 0.32 0.30 0.27 0.28 0.35 0.39 0.36 0.39 0.37 0.22 0.28 0.31 0.35 0.49 0.58 0.64 0.70 0.76 0.67
1.64 1.66 1.46 1.42 1.30 1.05 0.90 0.75 0.68 0.61 0.48 0.36 0.29 0.22 0.19 0.16 0.17 0.20 0.25 0.27 0.30 0.26 0.30 0.35 0.32 0.31 0.24 0.22 0.27 0.35 0.35 0.35 0.37 0.35 0.32 0.32 0.35 0.49 0.55 0.63 0.64 0.68 0.69
1.11 1.26 1.28 1.24 1.20 0.98 0.80 0.65 0.54 0.45 0.35 0.27 0.25 0.21 0.18 0.16 0.15 0.13 0.13 0.18 0.25 0.27 0.35 0.27 0.30 0.32 0.29 0.22 0.22 0.24 0.24 0.26 0.31 0.36 0.35 0.31 0.34 0.41 0.42 0.42 0.47 0.58 0.61
0.70 0.89 1.07 1.23 1.32 1.04 0.80 0.64 0.56 0.49 0.38 0.30 0.26 0.26 0.21 0.21 0.19 0.17 0.16 0.15 0.15 0.20 0.27 0.30 0.36 0.33 0.34 0.30 0.23 0.21 0.22 0.20 0.20 0.20 0.27 0.30 0.29 0.22 0.23 0.28 0.34 0.47 0.49
0.55 0.63 0.76 0.96 1.15 1.05 0.84 0.67 0.61 0.57 0.49 0.39 0.30 0.26 0.26 0.28 0.29 0.27 0.24 0.23 0.23 0.20 0.18 0.20 0.25 0.31 0.37 0.38 0.29 0.23 0.25 0.23 0.17 0.17 0.14 0.15 0.22 0.16 0.16 0.19 0.27 0.38 0.42